Location: Newark
(35.2672°N, 80.7344°W)
Time: 16:54:19
(UTC+00:00)

Tiros 1 - Pass Details

Date: 27 January 2020
Orbit: 631 x 664 km, 48.4° (Epoch: 23 February)

Event Time Altitude Azimuth Distance (km) Brightness Sun altitude
Rises 21:46:27 0° 311° (NW) 2,965 10.8 10.0°
Reaches altitude 10° 21:49:06 10° 324° (NW) 2,058 9.9 9.5°
Maximum altitude 21:53:08 27° 22° (NNE) 1,261 8.3 8.8°
Drops below altitude 10° 21:57:12 10° 80° (E) 2,070 9.2 8.1°
Sets 21:59:51 0° 93° (E) 2,984 10.0 7.6°
